Location: Albert Place
(40.7505°N, 111.9230°W)
Time: 22:42:28
(UTC+00:00)

Cosmos 1428 Rocket - Pass Details

Date: 13 December 2025
Orbit: 947 x 987 km, 82.9° (Epoch: 14 January)

Event Time Altitude Azimuth Distance (km) Brightness Sun altitude
Rises 12:12:34 0° 193° (SSW) 3,644 7.4 -27.7°
Reaches altitude 10° 12:15:05 10° 196° (SSW) 2,707 6.7 -27.2°
Maximum altitude 12:21:15 67° 279° (W) 1,055 4.3 -26.1°
Drops below altitude 10° 12:27:32 10° 2° (N) 2,747 6.8 -24.9°
Sets 12:30:05 0° 5° (N) 3,702 7.5 -24.4°
